Weather History for Aberdeen, SD

Change the Weather History Date:

Thursday, January 10, 2013

  Actual Average Record
Temperature  
Mean Temperature 35 °F 12 °F  
Max Temperature 38 °F 22 °F 56 °F (2012)
Min Temperature 32 °F 1 °F -30 °F (1978)
Degree Days  
Heating Degree Days 30 53  
Month to date heating degree days 461 530  
Since 1 July heating degree days 3885 4021  
Cooling Degree Days 0 0  
Month to date cooling degree days 0 0  
Year to date cooling degree days 0 0  
Moisture  
Dew Point 28 °F    
Average Humidity 77    
Maximum Humidity 89    
Minimum Humidity 64    
Precipitation  
Precipitation 0.00 in 0.02 in 0.44 in (1976)
Month to date precipitation T 0.18  
Year to date precipitation T 0.18  
Snow  
Snow 0.00 in - - ()
Month to date snowfall T  
Since 1 July snowfall 13.9  
Snow Depth 2.00 in    
Sea Level Pressure  
Sea Level Pressure 29.77 in    
Wind  
Wind Speed 23 mph (South)    
Max Wind Speed 32 mph    
Max Gust Speed 41 mph    
Visibility 9 miles    
Events      
T = Trace of Precipitation, MM = Missing Value Source: NWS Daily Summary

Daily Weather History Graph

Daily Weather History Graph

Search for Another Location

Airport:

Trip Planner

Search our weather history database for the weather conditions in past years. The results will help you decide how hot, cold, wet, or windy it might be!

Date:

Astronomy

Jan. 10, 2013 Rise Set
Actual Time 8:11 AM CST 5:11 PM CST
Civil Twilight 7:38 AM CST 5:44 PM CST
Nautical Twilight 7:01 AM CST 6:21 PM CST
Astronomical Twilight 6:25 AM CST 6:57 PM CST
Moon 6:52 AM CST (1/10) 4:21 PM CST (1/10)
Length of Visible Light 10h 05m
Length of Day
8h 59m
Waning Crescent, 2% of the Moon is Illuminated
Jan 10
Waning Crescent
Jan 11
New
Jan 18
First Quarter
Jan 26
Full
Feb 3
Last Quarter

Hourly Weather History & Observations

Time (CST) Temp. Windchill Dew Point Humidity Pressure Visibility Wind Dir Wind Speed Gust Speed Precip Events Conditions
12:53 AM 33.1 °F 21.9 °F 27.0 °F 78% 30.03 in 10.0 mi South 18.4 mph - N/A   Clear
1:53 AM 33.1 °F 21.5 °F 27.0 °F 78% 30.01 in 10.0 mi South 19.6 mph 24.2 mph N/A   Clear
2:53 AM 34.0 °F 21.3 °F 27.0 °F 75% 29.99 in 10.0 mi South 25.3 mph 31.1 mph N/A   Clear
3:53 AM 34.0 °F 21.8 °F 26.1 °F 73% 29.98 in 10.0 mi South 23.0 mph - N/A   Clear
4:53 AM 33.1 °F 20.9 °F 26.1 °F 75% 29.96 in 10.0 mi South 21.9 mph - N/A   Clear
5:53 AM 33.8 °F 20.3 °F 26.6 °F 75% 29.89 in 10.0 mi South 28.8 mph 36.8 mph N/A   Clear
6:53 AM 33.1 °F 19.8 °F 25.0 °F 72% 29.93 in 10.0 mi South 26.5 mph 33.4 mph N/A   Clear
7:53 AM 33.1 °F 19.8 °F 25.0 °F 72% 29.93 in 10.0 mi South 26.5 mph 34.5 mph N/A   Clear
8:53 AM 35.1 °F 22.5 °F 25.0 °F 67% 29.92 in 10.0 mi South 26.5 mph 36.8 mph N/A   Clear
9:53 AM 36.0 °F 23.9 °F 26.1 °F 67% 29.92 in 10.0 mi South 25.3 mph 32.2 mph N/A   Clear
10:53 AM 37.0 °F 25.6 °F 26.1 °F 65% 29.90 in 10.0 mi South 24.2 mph 32.2 mph N/A   Clear
11:53 AM 37.0 °F 26.7 °F 27.0 °F 67% 29.86 in 10.0 mi South 19.6 mph 31.1 mph N/A   Clear
12:53 PM 37.0 °F 27.0 °F 27.0 °F 67% 29.81 in 10.0 mi South 18.4 mph - N/A   Clear
1:53 PM 37.0 °F 25.9 °F 27.0 °F 67% 29.76 in 10.0 mi South 23.0 mph 31.1 mph N/A   Clear
2:53 PM 36.0 °F 23.9 °F 27.0 °F 70% 29.73 in 10.0 mi SSE 25.3 mph 35.7 mph N/A   Mostly Cloudy
3:53 PM 36.0 °F 23.2 °F 28.0 °F 73% 29.70 in 10.0 mi SSE 28.8 mph 35.7 mph N/A   Clear
4:53 PM 35.1 °F 22.7 °F 28.9 °F 78% 29.68 in 10.0 mi SSE 25.3 mph - N/A   Scattered Clouds
5:53 PM 34.0 °F 21.8 °F 30.9 °F 89% 29.65 in 10.0 mi SSE 23.0 mph 28.8 mph N/A   Mostly Cloudy
6:53 PM 34.0 °F 23.0 °F 30.9 °F 89% 29.62 in 10.0 mi SSE 18.4 mph 27.6 mph N/A   Overcast
7:53 PM 34.0 °F 21.0 °F 30.9 °F 89% 29.61 in 10.0 mi South 26.5 mph 38.0 mph N/A   Overcast
8:53 PM 34.0 °F 21.5 °F 30.9 °F 89% 29.57 in 10.0 mi SSE 24.2 mph 28.8 mph N/A   Overcast
9:53 PM 34.0 °F 24.2 °F 30.9 °F 89% 29.57 in 9.0 mi South 15.0 mph - N/A   Overcast
10:53 PM 33.1 °F 23.0 °F 30.9 °F 92% 29.54 in 6.0 mi South 15.0 mph - N/A   Overcast
11:14 PM 33.8 °F 24.3 °F 30.2 °F 87% 29.50 in 5.0 mi South 13.8 mph 23.0 mph N/A   Overcast
11:42 PM 33.8 °F 23.9 °F 30.2 °F 87% 29.49 in 2.0 mi South 15.0 mph - N/A   Overcast
11:53 PM 33.1 °F 23.0 °F 32.0 °F 96% 29.52 in 1.8 mi South 15.0 mph - N/A   Overcast